TimeMST,TemperatureF,Dew PointF,Humidity,Sea Level PressureIn,VisibilityMPH,Wind Direction,Wind SpeedMPH,Gust SpeedMPH,PrecipitationIn,Events,Conditions,WindDirDegrees,DateUTC
12:51 AM,34.0,19.9,56,29.93,10.0,West,19.6,-,N/A,,Clear,260,2013-01-18 07:51:00
1:51 AM,35.1,19.9,54,29.93,10.0,West,15.0,-,N/A,,Clear,280,2013-01-18 08:51:00
2:51 AM,32.0,19.0,59,29.93,10.0,West,13.8,-,N/A,,Clear,270,2013-01-18 09:51:00
3:51 AM,32.0,19.0,59,29.92,10.0,West,13.8,-,N/A,,Clear,270,2013-01-18 10:51:00
4:51 AM,30.0,19.0,64,29.92,10.0,West,10.4,-,N/A,,Clear,270,2013-01-18 11:51:00
5:51 AM,30.9,19.0,61,29.92,10.0,West,11.5,-,N/A,,Clear,260,2013-01-18 12:51:00
7:51 AM,28.9,18.0,64,29.92,10.0,West,12.7,-,N/A,,Clear,260,2013-01-18 14:51:00
8:51 AM,33.1,19.0,56,29.93,10.0,WSW,15.0,-,N/A,,Clear,250,2013-01-18 15:51:00
9:51 AM,37.0,21.9,54,29.93,10.0,WSW,10.4,-,N/A,,Clear,250,2013-01-18 16:51:00
10:51 AM,41.0,23.0,49,29.90,10.0,West,12.7,-,N/A,,Clear,260,2013-01-18 17:51:00
11:51 AM,42.1,24.1,49,29.87,10.0,West,10.4,-,N/A,,Clear,270,2013-01-18 18:51:00
12:51 PM,42.1,24.1,49,29.85,10.0,West,12.7,-,N/A,,Clear,260,2013-01-18 19:51:00
1:51 PM,42.1,25.0,51,29.84,10.0,West,10.4,-,N/A,,Clear,270,2013-01-18 20:51:00
2:51 PM,39.9,24.1,53,29.84,10.0,West,13.8,-,N/A,,Clear,260,2013-01-18 21:51:00
3:51 PM,39.0,24.1,55,29.84,10.0,West,13.8,-,N/A,,Clear,270,2013-01-18 22:51:00
4:51 PM,37.9,24.1,57,29.86,10.0,West,11.5,-,N/A,,Clear,270,2013-01-18 23:51:00
5:51 PM,37.9,23.0,55,29.85,10.0,West,12.7,-,N/A,,Clear,280,2013-01-19 00:51:00
6:51 PM,36.0,24.1,62,29.86,10.0,West,11.5,-,N/A,,Clear,270,2013-01-19 01:51:00
7:51 PM,34.0,23.0,64,29.88,10.0,West,12.7,-,N/A,,Overcast,280,2013-01-19 02:51:00
9:51 PM,36.0,24.1,62,29.87,10.0,WNW,12.7,-,N/A,,Overcast,290,2013-01-19 04:51:00
10:51 PM,33.1,23.0,66,29.88,10.0,West,11.5,-,N/A,,Overcast,280,2013-01-19 05:51:00